Flag for Canada Weather past 2 weeks in Resolute Bay, Nunavut, Canada

Now
36 °F

Clear.


Feels Like: 28 °F
Forecast: 31 / 41 °F
Wind: 10 mph from East

Location: Resolute

Current Time: Aug 30, 2015 at 5:14:38 AM

Latest Report: Aug 30, 2015 at 4:00 AM


Visibility: 15 mi

Pressure: 29.95 "Hg

Humidity: 70%

Dew point: 27 °F

Location of Resolute BayLocation

Historic Weather in Resolute Bay — Graph

°F

Resolute Bay temperature yesterday

Maximum temperature yesterday: 43 °F (at 7:00 PM)
Minimum temperature yesterday: 36 °F (at 12:00 AM)
Average temperature yesterday: 38 °F

Past Weeks' High & Low Weather Summary

 TemperatureHumidityPressure
High50 °F (Aug 16, 2:00 PM)100% (Aug 17, 4:00 AM)30.41 "Hg (Aug 17, 4:00 AM)
Low28 °F (Aug 23, 3:00 AM)53% (Aug 29, 6:00 PM)29.69 "Hg (Aug 17, 5:00 AM)
Average35 °F88%30.03 "Hg
* Reported Aug 15 4:00 AM — Aug 30 4:00 AM, Resolute Bay, Weather by CustomWeather, © 2015

Note: Actual official high and low records may vary slightly from our data, if they occured in-between our weather recording intervals... More about our weather records

Advertising

Resolute Bay weather history for previous 24 hours

 ConditionsComfort  
Time TempWeatherWind HumidityBarometerVisibility
4:00 AM
Sun, Aug 30
36 °FClear.10 mph70%29.95 "Hg15 mi
3:00 AM34 °FClear.6 mph70%29.95 "Hg15 mi
2:00 AM34 °FClear.10 mph81%29.95 "Hg15 mi
1:00 AM34 °FClear.10 mph81%29.95 "Hg15 mi
12:00 AM34 °FClear.6 mph81%29.94 "Hg15 mi
11:00 PM
Sat, Aug 29
36 °FPassing clouds.10 mph75%29.94 "Hg15 mi
10:00 PM37 °FPassing clouds.6 mph70%29.95 "Hg15 mi
9:00 PM41 °FPassing clouds.No wind61%29.94 "Hg15 mi
8:00 PM41 °FPassing clouds.12 mph61%29.94 "Hg15 mi
7:00 PM43 °FPassing clouds.6 mph66%29.94 "Hg15 mi
6:00 PM41 °FScattered clouds.6 mph53%29.93 "Hg15 mi
5:00 PM39 °FPartly sunny.6 mph81%29.92 "Hg15 mi
4:00 PM41 °FPartly sunny.6 mph81%29.92 "Hg15 mi
3:00 PM39 °FPartly sunny.6 mph70%29.92 "Hg15 mi
2:00 PM39 °FPartly sunny.7 mph70%29.91 "Hg15 mi
1:00 PM39 °FPartly sunny.6 mph70%29.90 "Hg15 mi
12:00 PM39 °FPartly sunny.6 mph70%29.90 "Hg15 mi
11:00 AM39 °FPartly sunny.7 mph70%29.89 "Hg15 mi
10:00 AM39 °FPartly sunny.7 mph65%29.89 "Hg15 mi
9:00 AM39 °FBroken clouds.7 mph70%29.89 "Hg15 mi
8:00 AM37 °FPartly sunny.6 mph75%29.88 "Hg15 mi
7:00 AM37 °FMostly cloudy.5 mph70%29.88 "Hg15 mi
6:00 AM36 °FMostly cloudy.6 mph75%29.87 "Hg15 mi
5:00 AM36 °FMostly cloudy.5 mph75%29.86 "Hg15 mi
Weather by CustomWeather, © 2015

See weather overviewHow to use our weather pages